#timestamp,LO_Frequency,Hit,StdDev 
1503435615.8,286046995.0,N,1.9
1503435635.7,286046997.9,N,1.9
1503435655.5,286046995.5,N,1.9
1503435675.3,286046993.3,Y,0.0
1503435695.2,286046997.1,P,0.2
1503435715.0,286046997.1,P,0.2
1503435715.9,286046997.1,P,0.2
1503435735.8,286046997.8,Y,0.0
1503435755.6,286047000.3,P,1.6
1503435775.4,286046998.5,N,1.3
1503435795.3,286046998.5,N,1.1
1503435815.1,286046998.1,N,1.0
1503435835.9,286047000.5,N,1.2
1503435855.7,286047000.7,N,1.3
1503435875.5,286047001.2,N,1.4
1503435895.4,286046998.4,N,1.3
1503435915.2,286047000.9,N,1.4
1503435935.0,286046998.8,N,1.3
1503435935.9,286046998.8,N,1.3
1503435955.8,286046998.4,N,1.2
1503435975.6,286046998.5,N,1.2
1503435995.5,286046998.2,N,1.2
1503436015.3,286047000.5,N,1.2
1503436035.1,286046998.3,N,1.2
1503436055.9,286046998.6,N,1.2
1503436075.7,286046998.1,N,1.2
1503436095.6,286047001.1,N,1.2
1503436115.4,286047000.7,N,1.2
1503436135.2,286046998.6,N,1.2
1503436155.1,286046998.3,N,1.2
1503436156.0,286046998.3,N,1.2
1503436175.8,286046998.5,N,1.2
1503436195.7,286046999.1,N,1.1
1503436215.5,286046997.3,N,1.2
1503436235.3,286046999.5,N,1.1
1503436255.2,286046997.0,N,1.2
1503436275.0,286046997.2,N,1.2
1503436275.9,286046997.2,N,1.2
1503436295.8,286046996.6,N,1.3
1503436315.6,286046998.8,N,1.3
1503436335.4,286046999.0,N,1.3
1503436355.3,286046998.3,N,1.3
1503436375.1,286046998.6,N,1.2
1503436395.9,286046998.8,N,1.2
1503436415.7,286046996.9,N,1.1
1503436435.5,286046999.6,N,1.1
1503436455.4,286046999.2,N,1.0
1503436475.2,286046997.0,N,1.1
1503436495.1,286046997.4,N,1.1
1503436496.0,286046997.4,N,1.1
1503436515.8,286046998.0,N,1.1
1503436535.6,286046999.5,N,1.1
1503436555.5,286046996.9,N,1.1
1503436575.3,286046999.2,N,1.1
1503436595.2,286046997.7,N,1.1
1503436615.9,286046997.8,N,1.1
1503436635.7,286046996.6,Y,0.0
1503436655.6,286046998.6,P,0.1
1503436675.4,286046998.1,P,0.2
1503436695.3,286046998.8,P,0.3
1503436715.1,286046998.7,Y,0.0
1503436716.0,286046998.7,P,0.1
1503436735.8,286047000.2,N,0.8
1503436755.7,286047002.4,P,1.6
1503436775.5,286047002.7,N,1.8
1503436795.4,286047002.8,N,1.8
1503436815.2,286047001.1,N,1.7
1503436835.0,286046999.7,N,1.6
1503436835.9,286046999.7,N,1.6
1503436855.8,286047000.3,N,1.5
1503436875.6,286047000.8,N,1.4
1503436895.4,286046998.5,N,1.5
1503436915.3,286046998.4,N,1.5
1503436935.1,286046998.2,N,1.6
1503436955.9,286047001.0,N,1.5
1503436975.7,286047001.0,N,1.5
1503436995.5,286046998.1,N,1.5
1503437015.4,286046998.1,N,1.6
1503437035.2,286047000.7,N,1.5
1503437055.0,286047002.2,N,1.6
1503437056.0,286047002.2,N,1.6
1503437075.8,286047002.5,N,1.6
1503437095.6,286047002.6,N,1.7
1503437115.5,286046999.7,N,1.6
1503437135.3,286046999.9,N,1.6
1503437155.1,286047002.7,N,1.6
1503437175.9,286046999.8,N,1.6
1503437195.7,286047000.0,N,1.6
1503437215.6,286047000.8,N,1.5
1503437235.4,286046998.2,N,1.6
1503437255.2,286047000.1,N,1.5
1503437275.1,286046999.9,N,1.5
1503437276.0,286046999.9,N,1.5
1503437295.8,286047002.1,N,1.5
1503437315.7,286047002.2,N,1.5
1503437335.5,286047001.6,N,1.4
1503437355.3,286047001.3,N,1.4
1503437375.2,286047004.2,N,1.6
1503437395.9,286047003.6,N,1.7
1503437415.7,286047003.3,N,1.7
1503437435.6,286047005.9,Y,0.0
1503437455.4,286047003.9,P,1.6
1503437475.3,286047001.3,N,1.4
1503437495.1,286047001.4,N,1.2
1503437496.0,286047001.4,N,1.1
1503437515.8,286047004.3,Y,0.0
1503437535.7,286047000.0,P,0.9
1503437555.5,286047000.2,N,0.8
1503437575.4,286046999.9,N,0.8
1503437595.2,286047001.0,N,0.7
1503437615.0,286047000.4,N,0.6
1503437615.9,286047000.4,N,0.6
1503437635.8,286047002.7,Y,0.0
1503437655.6,286046999.8,P,0.4
1503437675.5,286047000.4,N,0.3
1503437695.3,286047000.4,N,0.3
1503437715.1,286047001.2,Y,0.0
1503437735.9,286047000.3,P,0.0
1503437755.7,286047000.9,P,0.3
1503437775.5,286047000.6,N,0.3
1503437795.4,286047000.2,N,0.3
1503437815.2,286047000.5,N,0.2
1503437835.1,286047000.7,N,0.2
1503437836.0,286047000.7,N,0.2
1503437855.8,286047000.8,Y,0.0
1503437875.6,286046998.1,P,1.2
1503437895.5,286046999.4,N,1.0
1503437915.3,286046999.4,N,0.9
1503437935.2,286046999.4,N,0.8
1503437955.9,286046998.9,N,0.7
1503437975.7,286046999.3,N,0.7
1503437995.6,286046998.7,N,0.7
1503438015.4,286047000.8,N,0.8
1503438035.2,286047000.4,N,0.8
1503438055.1,286047000.5,N,0.8
1503438056.0,286047000.5,N,0.8
1503438075.8,286047000.4,N,0.8
1503438095.7,286047000.0,N,0.8
1503438115.5,286042725.2,Y,0.0
1503438135.3,286047000.4,P,0.3
1503438155.2,286046999.8,N,0.3
1503438175.0,286047000.2,N,0.3
1503438175.9,286047000.2,N,0.3
1503438195.8,286046999.8,N,0.3
1503438215.6,286047000.9,Y,0.0
1503438235.4,286047001.0,P,0.5
1503438255.3,286046998.2,P,1.2
1503438275.1,286047000.7,N,1.1
1503438295.9,286047000.6,N,1.0
1503438315.7,286047000.9,N,1.0
1503438335.5,286047001.1,N,0.9
1503438355.4,286047000.9,N,0.9
1503438375.2,286047000.6,N,0.8
1503438395.0,286047000.0,N,0.8
1503438396.0,286047000.0,N,0.8
1503438415.8,286047000.9,N,0.8
1503438435.6,286047000.0,N,0.7
1503438455.5,286047000.3,N,0.7
1503438475.3,286047000.6,N,0.7
1503438495.1,286047000.2,N,0.7
1503438515.9,286046999.7,N,0.7
1503438535.7,286047002.6,Y,0.0
1503438555.6,286047002.5,P,1.1
1503438575.4,286047002.8,N,1.1
1503438595.2,286046999.9,N,1.3
1503438615.1,286047002.5,N,1.2
1503438616.0,286047002.5,N,1.2
1503438635.8,286046999.7,N,1.3
1503438655.7,286047000.1,N,1.3
1503438675.5,286047002.8,N,1.3
1503438695.3,286047002.3,N,1.3
1503438715.2,286047004.3,Y,0.0
1503438735.0,286047000.4,P,0.6
1503438735.9,286047000.4,N,0.5
1503438755.8,286047000.7,N,0.5
1503438775.6,286046999.9,N,0.5
1503438795.4,286046998.7,N,0.9
1503438815.3,286046998.3,N,1.1
1503438835.1,286047000.0,N,1.0
1503438855.8,286046998.2,N,1.1
1503438875.7,286046998.1,N,1.1
1503438895.5,286046998.8,N,1.1
1503438915.4,286047000.6,N,1.1
1503438935.2,286047002.3,N,1.3
1503438955.0,286047000.2,N,1.2
1503438955.9,286047000.2,N,1.2
1503438975.8,286047000.9,N,1.2
1503438995.6,286047000.5,N,1.2
1503439015.5,286047001.0,N,1.2
1503439035.3,286047001.0,N,1.1
1503439055.1,286046999.9,N,1.1
1503439075.9,286047002.8,N,1.2
1503439095.7,286047002.5,N,1.3
1503439115.5,286047002.1,N,1.3
1503439135.4,286047002.6,N,1.4
1503439155.2,286046999.8,N,1.3
1503439175.1,286047002.7,N,1.4
1503439176.0,286047002.7,N,1.4
1503439195.8,286047000.2,N,1.4
